Regional Weather Roundup
Issued by NWS San Angelo, TX

Home | Current Version | Previous Version | Text Only | Print | Product List | Glossary On
Versions: 1 2 3 4 5 6 7 8 9 10 11 12 13 14 15 16 17 18 19 20 21 22 23 24 25 26 27 28 29 30 31 32 33 34 35 36 37 38 39 40 41 42 43 44 45 46 47 48 49 50
000
ASUS44 KSJT 300902
RWRSJT
WEST CENTRAL TEXAS REGIONAL WEATHER ROUNDUP
NATIONAL WEATHER SERVICE SAN ANGELO TX
400 AM CDT THU MAR 30 2017

NOTE: "FAIR" INDICATES FEW OR NO CLOUDS BELOW 12,000 FEET WITH NO
SIGNIFICANT WEATHER AND/OR OBSTRUCTIONS TO VISIBILITY.

TXZ049-054-064>066-071>073-076>078-098-099-113-114-127-128-139-140-
154-155-168>170-301000
...LOCATIONS ACROSS WEST CENTRAL TEXAS...

CITY           SKY/WX    TMP DP  RH WIND       PRES   REMARKS
SAN ANGELO     CLEAR     46  40  79 W9        29.98F
ABILENE        PTCLDY    48  43  82 W10       29.93F
DYESS AFB      PTCLDY    48  44  87 W8        29.92F
JUNCTION       PTCLDY    48  43  82 W5        29.99F
SWEETWATER     CLOUDY    48  42  82 SW9       29.97F
BROWNWOOD      CLEAR     48  45  87 W7        29.94S
COLEMAN        SUNNY     49  43  80 W8        29.96R
SONORA         PTCLDY    48  41  76 CALM      30.06R
OZONA          FAIR      45  37  76 W3        30.05S
BRADY          NOT AVBL
$$

TEXAS PANHANDLE/OKLAHOMA PANHANDLE

CITY           SKY/WX    TMP DP  RH WIND       PRES   REMARKS
AMARILLO       CLEAR     41  36  82 W14       29.90F WCI  33
BORGER         PTCLDY    41  38  89 CALM      29.90F
CANADIAN       CLEAR     46  40  78 NW15      29.85S WCI  40
DALHART        CLEAR     36  34  92 W9        29.91F WCI  29
DUMAS          SUNNY     38  33  82 W12       29.90F WCI  31
GUYMON         NOT AVBL
HEREFORD       SUNNY     38  37  92 W12       29.93F WCI  31
PAMPA          PTSUNNY   44  39  85 NW17      29.89F WCI  36
PERRYTON       CLEAR     42  38  87 NW12      29.84F WCI  35
$$

SOUTHERN PANHANDLE/SOUTH PLAINS/ROLLING PLAINS

CITY           SKY/WX    TMP DP  RH WIND       PRES   REMARKS
LUBBOCK        CLEAR     41  38  89 W9        29.93F WCI  35
SNYDER         CLOUDY    43  40  89 W6        29.94F WCI  39
CHILDRESS      CLEAR     46  40  79 W10       29.88F
SEMINOLE       SUNNY     38  33  82 W8        29.99F WCI  32
$$

PERMIAN BASIN

CITY           SKY/WX    TMP DP  RH WIND       PRES   REMARKS
MIDLAND        CLEAR     43  37  79 W7        30.00F WCI  39
ODESSA           N/A     43  34  70 W5        30.00F
WINK           CLEAR     43  35  73 CALM      30.01S
$$

FAR WEST/SOUTHWEST MOUNTAINS/TRANS PECOS

CITY           SKY/WX    TMP DP  RH WIND       PRES   REMARKS
ALPINE         SUNNY     38  29  68 SW8       30.13F WCI  33
DRYDEN           N/A     51  35  54 W6        30.03F
EL PASO        CLEAR     51  31  46 S7        30.04F
FORT STOCKTON  CLEAR     46  34  62 SW10      30.03F
GUADALUPE PASS CLEAR     44  31  60 W22       30.07F WCI  35
MARFA          CLEAR     31  24  75 NE3       30.10F
PECOS          SUNNY     39  29  69 CALM      30.03F
$$

DALLAS/FORT WORTH METROPLEX

CITY           SKY/WX    TMP DP  RH WIND       PRES   REMARKS
DFW AIRPORT    PTCLDY    55  43  63 W12       29.83F
FTW MEACHAM    CLEAR     53  43  68 W7        29.85F
DAL-EXECUTIVE  CLEAR     55  43  63 W14G22    29.84S
GRAND PRAIRIE  CLEAR     55  42  60 W9        29.87S
ADDISON        CLEAR     53  42  66 W7        29.86S
MESQUITE       SUNNY     55  42  62 W14       29.85S
LANCASTER      SUNNY     54  43  66 W12       29.86S
$$

NORTH CENTRAL TEXAS

CITY           SKY/WX    TMP DP  RH WIND       PRES   REMARKS
SHRMAN/DENISON SUNNY     47  42  81 W7        29.82S
GAINESVILLE    CLEAR     48  41  76 W9        29.84S
BRIDGEPORT     MOSUNNY   50  43  75 W6        29.88S
DENTON         PTCLDY    48  43  82 W7        29.84F
WAXAHACHIE     MOSUNNY   52  46  81 W8        29.87S
GRANBURY       SUNNY     52  46  78 W7        29.90R
$$

WESTERN NORTH TEXAS

CITY           SKY/WX    TMP DP  RH WIND       PRES   REMARKS
WICHITA FALLS  PTCLDY    47  42  83 W10       29.84F
VERNON         MOSUNNY   50  40  68 W13       29.87S
BRECKENRIDGE   SUNNY     52  43  71 W9        29.90F
COMANCHE       CLEAR     50  45  83 W12       29.92S
$$

CENTRAL AND SOUTH CENTRAL TEXAS

CITY           SKY/WX    TMP DP  RH WIND       PRES   REMARKS
AUSTIN/BERGSTM PTCLDY    59  49  69 NW10      29.92R
WACO           CLEAR     53  49  86 W10       29.90R
HILLSBORO      MOSUNNY   53  49  87 W8        29.88S
TEMPLE         PTCLDY    55  48  77 W9        29.91S
KILLEEN-GRAY   PTCLDY    53  48  83 W6        29.92R
FORT HOOD      CLEAR     53  47  81 W10       29.89R
GEORGETOWN     CLEAR     55  46  71 NW8       29.92S
LAGO VISTA     FAIR      54  49  82 W6        29.93S
SAN MARCOS     PTCLDY    55  46  71 NW12      29.94R
NEW BRAUNFELS  MOCLDY    57  46  66 N10       29.92R
RANDOLPH AFB   PTCLDY    57  46  67 N9        29.94R
SAN ANTONIO    PTCLDY    57  45  64 NW12      29.95R
STINSON        MOCLDY    61  44  53 N7        29.93S
PLEASANTON     NOT AVBL
LA GRANGE      CLOUDY    61  52  71 NW9       29.89R
GIDDINGS       PTSUNNY   58  50  75 NW5       29.92R
$$

EAST TEXAS

CITY           SKY/WX    TMP DP  RH WIND       PRES   REMARKS
PARIS          CLEAR     48  43  81 W8        29.79S
CLARKSVILLE    NOT AVBL
TYLER          CLEAR     56  48  74 W7        29.82R
LONGVIEW       CLEAR     57  51  80 NW10      29.80R
PALESTINE      SUNNY     57  49  77 W10G18    29.87R
NACOGDOCHES    CLEAR     59  54  82 NW10      29.80R
$$

TEXAS HILL COUNTRY AND EDWARDS PLATEAU

CITY           SKY/WX    TMP DP  RH WIND       PRES   REMARKS
LLANO          SUNNY     50  46  87 W5        30.00R
HORSESHOE BAY  FAIR      53  47  82 W6        29.95F
KERRVILLE      CLEAR     51  46  84 NW8       29.96F
FREDERICKSBRG  NOT AVBL
ROCKSPRINGS    NOT AVBL
HONDO          PTCLDY    55  44  66 N9        29.97R
UVALDE         SUNNY     52  43  72 CALM      29.98F
DEL RIO        CLEAR     57  43  59 NW6       30.01S
$$

SOUTHEAST TEXAS

CITY           SKY/WX    TMP DP  RH WIND       PRES   REMARKS
COLLEGE STN    CLOUDY    59  50  72 NW15      29.89R
CALDWELL       NOT AVBL
CROCKETT       NOT AVBL
BRENHAM        CLOUDY    62  54  75 NW6       29.90S
HUNTSVILLE     CLOUDY    61  52  72 NW10      29.87R
CONROE         CLOUDY    61  55  81 NW8       29.85R
HOUSTON BUSH   CLOUDY    64  55  72 NW9       29.85R
HOUSTON HOBBY  MOCLDY    67  54  63 NW9       29.84R
PERLAND        MOCLDY    68  57  68 NW9       29.86R
WHARTON        PTSUNNY   63  52  67 NW7       29.87F
$$

THE UPPER TEXAS COAST

CITY           SKY/WX    TMP DP  RH WIND       PRES   REMARKS
ORANGE         FOG       66  66  99 MISG      29.82R VSB 1/4
PORT ARTHUR    CLOUDY    68  67  96 S7        29.80R FOG
GALVESTON      FOG       72  71  97 SW7       29.83R VSB 1/2
ANGLETON       CLOUDY    65  64  97 NW12G23   29.84R
BAY CITY       PTSUNNY   61  61 100 NW10      29.85R
$$

TEXAS COASTAL BEND, RIO GRANDE PLAINS DEEP SOUTH TEXAS

CITY           SKY/WX    TMP DP  RH WIND       PRES   REMARKS
VICTORIA       MOCLDY    62  53  72 NW10      29.90R
BEEVILLE       FAIR      65  52  62 N13       29.91R
ROCKPORT       CLOUDY    68  53  58 N16G25    29.88R
PORT ARANSAS   MOSUNNY   68  57  68 N15G21    29.86S
PORT LAVACA    PTSUNNY   63  58  83 NW5       29.87F
CORPUS CHRISTI MOCLDY    66  55  67 N10       29.88R
KINGSVILLE NAS PTCLDY    66  54  65 NW12      29.89R
COTULLA        CLOUDY    61  42  49 NW7       29.98R
LAREDO         CLOUDY    68  41  37 N17G24    29.97R
BROWNSVILLE    CLOUDY    73  72  96 NW7       29.82F
PORT ISABEL    MOCLDY    73  72  96 N9        29.82S FOG
HEBBRONVILLE   CLOUDY    65  45  47 N9        29.93F
MCALLEN        CLOUDY    70  57  63 N8        29.85F
WESLACO        CLOUDY    64  57  76 N6        29.84F
FALFURRIAS     MOSUNNY   67  48  49 NW8       29.90R
EDINBURG       CLOUDY    62  53  71 NW6       29.86S
$$




USA.gov is the U.S. government's official web portal to all federal, state and local government web resources and services.